Location: Stara Lesna
(49.1528°N, 20.2911°E)
Time: 19:14:59
(UTC+02:00)

Cosmos 292 Rocket - Pass Details

Date: 13 July 2020
Orbit: 674 x 693 km, 74.0° (Epoch: 11 August)

Event Time Altitude Azimuth Distance (km) Brightness Sun altitude
Rises 00:53:20 0° 335° (NNW) 3,058 8.2 -19.0°
Reaches altitude 10° 00:55:39 10° 333° (NNW) 2,135 7.2 -19.0°
Maximum altitude 01:00:26 72° 250° (WSW) 719 3.7 -19.0°
Enters shadow 01:02:04 40° 177° (S) 995 4.1 -18.9°
